Temperature
14 14 14 14 14 14 14 14 13 13 13 13 13 12 12 12 12 12 12 12 11 11 11 10 10 10 9 9 9 9 9 9 9 9 9 9 9 9 9 9 9 9 9
14 14 14 14 14 13 13 13 13 13 13 13 12 12 12 12 12 12 11 11 11 11 10 10 10 9 9 9 9 9 9 9 9 9 9 9 9 9 9 9 9 9 9
13 13 13 13 13 13 13 13 13 13 12 12 12 12 12 11 11 11 11 11 10 10 10 10 10 10 9 9 9 9 9 9 9 9 8 8 8 8 8 8 8 8 8
13 13 13 13 13 12 12 12 12 12 12 12 12 11 11 11 11 11 10 10 10 10 10 10 9 9 9 9 9 9 9 8 8 8 8 8 8 8 8 8 8 8 8
13 12 12 12 12 12 12 12 12 12 11 11 11 11 11 10 10 10 10 10 10 10 9 9 9 9 9 9 9 9 8 8 8 8 7 7 7 7 7 7 7 7 7
12 12 12 12 12 12 11 11 11 11 11 11 11 10 10 10 10 10 9 9 9 9 9 9 9 9 9 9 9 8 8 8 7 7 7 7 7 7 7 7 7 7 7
12 12 12 11 11 11 11 11 11 10 10 10 10 10 10 9 9 9 9 9 9 9 9 8 8 8 8 8 8 8 8 7 7 6 6 6 6 6 6 6 6 6 6
11 11 11 11 11 11 11 10 10 10 10 10 9 9 9 9 9 9 9 9 8 8 8 8 8 8 8 8 8 8 7 7 7 6 6 6 5 5 6 6 6 6 6
11 11 11 11 10 10 10 10 10 10 9 9 9 9 8 8 8 8 8 8 8 8 8 8 8 7 7 7 7 7 7 6 6 6 5 5 5 5 5 5 5 5 6
10 10 10 10 10 10 10 10 9 9 9 9 8 8 8 8 8 8 8 8 8 8 8 7 7 7 7 7 7 6 6 6 5 5 5 5 5 5 5 5 5 5 5
10 10 10 10 9 9 9 9 9 9 9 8 8 8 8 7 7 7 7 7 7 7 7 7 7 6 6 6 6 6 6 5 5 5 4 4 4 4 4 4 4 4 4
9 9 9 9 9 9 9 9 9 8 8 8 8 8 7 7 7 6 6 6 6 7 7 7 6 6 6 5 5 5 5 5 5 4 4 4 4 4 4 4 4 4 4
9 9 9 9 9 8 8 8 8 8 8 8 7 7 7 7 6 6 6 5 5 6 6 6 6 5 5 5 5 5 4 4 4 4 4 4 3 3 3 3 3 3 4
9 9 8 8 8 8 8 8 8 8 7 7 7 7 7 6 6 6 5 5 4 5 5 5 5 5 4 4 4 4 4 4 4 4 3 3 3 3 3 3 3 3 3
8 8 8 8 8 8 8 8 7 7 7 7 6 6 6 6 6 6 5 5 4 3 4 4 4 4 4 4 4 4 3 3 3 3 3 3 3 3 2 3 3 3 3
8 8 8 8 8 8 7 7 7 7 7 6 6 6 6 6 6 5 5 5 4 4 3 4 4 4 3 3 3 3 3 3 3 3 3 3 3 2 2 2 2 2 2
7 7 7 7 7 7 7 7 7 7 6 6 6 6 6 5 5 5 5 4 4 4 3 3 4 3 3 3 3 3 3 3 3 2 2 2 2 2 2 1 1 2 2
7 7 7 7 7 7 6 6 6 6 6 6 5 5 5 5 5 5 4 4 4 3 3 3 3 3 3 2 2 2 2 2 2 2 2 2 2 1 1 1 1 1 1
7 7 7 6 6 6 6 6 6 6 5 5 5 5 5 4 4 4 4 4 3 3 3 3 2 2 2 2 2 2 2 2 2 2 2 2 1 1 1 1 1 1 1
6 6 6 6 6 6 6 5 5 5 5 5 5 4 4 4 4 4 3 3 3 3 2 2 2 2 1 1 1 1 1 2 2 1 1 1 1 1 1 1 1 1 0
5 6 6 5 5 5 5 5 5 5 5 5 4 4 4 4 4 3 3 3 3 2 2 2 1 1 1 1 1 1 1 1 1 1 1 1 1 1 1 1 0 0 0
5 5 5 5 5 5 5 5 5 5 4 4 4 4 4 3 3 3 3 2 2 2 1 1 1 1 1 1 0 0 0 0 0 0 0 1 1 1 0 0 0 0 0
4 4 4 5 5 5 4 4 4 4 4 4 4 3 3 3 3 3 2 2 2 2 1 1 1 1 0 0 -0 -0 -0 -0 -0 -0 -0 0 0 0 0 -0 -0 -0 -0
4 4 4 4 4 4 4 4 4 4 4 3 3 3 3 3 2 2 2 2 2 1 1 1 1 0 0 0 -0 -0 -0 -0 -0 -0 -1 -1 -0 -0 0 -0 -1 -1 -1
3 4 4 4 4 4 3 3 3 3 3 3 3 2 2 2 2 2 2 1 1 1 1 1 0 0 0 0 0 -0 -0 -1 -1 -1 -1 -1 -1 -1 -0 -0 -1 -1 -1
3 3 3 3 3 3 3 3 3 3 3 2 2 2 2 2 1 1 1 1 1 0 0 0 0 0 0 0 0 -0 -1 -1 -1 -1 -1 -1 -1 -2 -1 -1 -1 -1 -1
Wind_Speed
4 5 5 6 6 6 6 6 6 6 6 6 6 6 5 6 6 6 6 7 7 7 7 7 8 8 8 9 9 10 10 11 11 11 11 12 12 12 13 13 14 14 14
6 5 5 5 5 5 6 6 5 5 4 4 4 5 5 5 5 6 6 7 7 8 8 8 8 9 9 10 10 10 11 11 12 12 12 12 13 13 14 14 14 15 15
7 6 5 4 4 6 6 6 6 5 4 4 3 4 4 4 4 5 6 6 7 7 8 8 9 9 10 10 11 11 11 12 12 12 13 13 14 14 15 15 15 16 16
8 6 5 4 5 6 6 4 3 3 3 3 2 2 3 4 4 5 5 6 6 7 8 9 10 10 10 11 11 12 12 13 13 13 14 14 15 15 15 15 16 16 16
7 6 5 5 6 6 4 3 3 3 3 2 2 3 3 3 3 4 4 5 6 6 8 8 10 11 11 12 12 13 13 14 14 15 15 15 16 16 16 16 16 16 17
7 6 5 5 6 4 3 3 3 3 3 2 3 3 3 2 3 3 3 4 5 7 8 8 9 10 11 12 13 14 14 14 15 15 16 16 16 16 17 17 17 17 18
7 6 4 5 5 4 4 4 4 4 3 2 3 3 3 2 2 2 3 3 4 6 7 8 9 9 9 11 12 14 15 16 16 16 16 17 17 17 17 17 17 18 18
6 6 6 4 4 4 5 4 4 3 2 2 2 2 2 3 3 3 2 2 3 5 6 7 8 9 9 10 11 13 15 16 17 17 17 17 17 18 18 18 18 18 18
6 6 7 6 4 4 5 5 5 5 3 1 2 3 2 1 2 2 2 2 2 2 3 5 7 8 9 9 10 12 14 16 17 17 18 17 17 17 17 17 17 18 18
5 6 7 7 5 3 4 4 4 3 4 3 1 1 2 2 1 2 2 2 3 3 3 4 6 7 8 9 10 13 14 16 16 17 18 17 17 17 18 18 18 18 18
4 5 6 6 5 4 4 4 4 4 3 3 2 2 2 1 1 1 3 3 3 2 2 3 4 5 7 9 10 12 15 16 16 17 17 18 18 18 18 18 18 18 19
2 4 5 5 5 5 4 4 4 4 3 3 2 2 2 2 2 2 2 3 3 3 3 3 3 4 6 8 10 14 15 16 16 17 17 17 18 18 18 18 19 19 19
2 4 4 4 4 5 5 5 4 4 4 4 3 2 2 2 2 2 2 2 3 3 3 2 2 4 6 9 11 14 14 15 16 16 17 17 17 18 18 18 19 19 19
3 4 5 5 5 5 5 5 3 3 3 4 3 3 2 1 2 2 2 1 2 2 2 3 2 3 6 9 11 13 12 15 15 16 16 17 17 18 18 18 19 19 19
3 4 5 5 5 5 5 5 3 3 4 3 3 3 2 1 1 1 2 3 2 2 3 3 2 3 8 9 11 12 11 14 15 15 16 16 17 17 18 18 18 18 18
3 5 5 5 5 4 5 4 3 3 4 3 2 3 2 1 1 1 2 1 2 2 3 3 4 5 8 9 12 12 12 15 15 16 16 16 17 17 17 17 18 18 18
4 5 5 5 5 5 4 4 4 4 4 3 2 3 2 1 1 1 1 1 1 1 4 5 4 5 5 6 9 10 11 11 11 15 16 16 16 16 16 17 18 18 18
3 4 5 5 5 5 5 5 5 5 5 4 3 3 2 2 1 1 1 1 1 2 3 6 6 5 5 6 6 7 9 10 10 13 15 15 15 16 16 17 17 17 17
3 3 4 5 5 5 4 4 5 5 5 4 4 4 3 3 1 1 1 1 2 2 2 3 6 5 5 5 6 7 6 7 9 12 13 14 15 16 16 16 17 17 17
3 4 4 4 5 4 4 4 4 4 4 3 3 3 3 3 3 2 2 2 1 1 2 3 5 5 5 5 5 6 7 6 7 9 10 12 14 15 16 16 16 17 17
3 3 3 3 4 4 4 4 4 4 3 3 2 2 3 3 3 2 2 2 1 1 2 3 4 5 6 5 6 5 7 8 7 5 6 7 9 8 10 14 15 16 17
2 2 2 3 3 3 5 6 4 4 3 3 2 2 2 2 2 2 3 3 2 2 3 3 4 5 6 6 6 6 7 8 6 4 6 8 6 6 8 9 14 17 17
2 2 2 2 3 3 4 5 5 4 4 3 3 2 1 1 1 1 2 3 3 5 5 4 5 6 6 6 6 7 7 7 7 6 6 7 6 7 8 11 16 17 17
2 2 2 2 2 2 4 4 4 3 3 2 3 3 2 2 2 1 1 1 2 3 4 3 3 5 5 5 5 6 6 6 6 5 3 5 6 6 8 10 14 15 16
1 1 1 2 2 2 3 4 4 3 2 1 1 2 2 2 3 2 0 1 2 3 4 5 6 7 8 9 7 4 4 5 6 5 2 2 4 6 7 6 9 13 14
2 2 1 1 2 2 3 4 4 2 2 1 1 1 2 2 3 2 1 1 3 3 3 4 5 6 6 6 7 4 3 4 5 4 2 3 4 5 5 4 5 8 10
Wind_Direction
123 111 104 98 94 94 95 93 89 86 77 71 72 77 71 65 60 57 46 45 42 37 34 29 22 15 9 5 2 356 352 347 344 341 337 333 331 329 328 325 321 320 318
130 123 113 105 100 101 103 101 101 98 86 78 71 68 68 65 63 57 51 44 39 34 29 26 18 12 7 3 358 354 347 342 340 337 334 330 327 326 324 322 320 318 315
136 130 125 118 112 108 102 93 90 85 82 75 65 61 64 64 64 57 53 49 41 32 28 24 17 11 6 1 357 354 349 343 339 335 332 331 328 324 321 319 317 315 313
140 132 130 129 121 111 103 103 99 90 76 73 67 51 55 58 57 58 55 51 46 38 31 24 17 11 4 360 356 352 348 344 339 336 334 330 327 322 319 318 316 315 314
144 137 136 134 127 113 106 112 93 99 97 78 69 56 46 45 44 52 47 43 43 40 33 24 19 11 3 358 355 351 348 344 340 338 334 329 326 322 319 316 315 314 314
147 138 134 136 131 121 116 114 107 87 98 96 76 53 31 25 42 45 34 34 35 34 30 23 17 8 4 359 354 350 346 343 341 339 334 331 328 325 322 319 318 316 315
150 142 136 142 141 141 141 134 120 102 79 77 77 38 14 22 37 36 27 30 27 26 27 21 13 6 358 355 352 349 345 342 339 336 333 331 330 328 325 324 322 320 319
156 152 145 151 152 144 138 140 130 122 91 60 99 94 15 355 7 21 12 26 18 18 17 8 4 1 353 350 349 349 345 342 338 335 331 329 328 327 327 326 327 327 325
162 158 153 147 149 155 159 158 152 140 141 67 69 125 130 237 311 335 359 7 2 5 357 354 357 355 353 350 347 345 343 341 339 337 333 330 329 329 329 330 330 329 327
160 159 153 150 149 152 161 164 155 148 145 150 100 66 114 153 160 314 323 338 348 343 336 340 344 344 348 348 345 344 342 339 338 338 336 334 333 333 332 330 329 328 327
156 158 156 152 151 152 157 156 150 150 148 156 153 133 97 79 115 177 278 309 327 314 311 314 327 334 341 345 343 342 344 343 340 339 337 336 335 335 334 333 331 329 328
157 159 155 153 152 150 157 161 153 153 151 147 144 147 157 160 178 182 232 278 299 301 306 308 317 327 337 343 341 341 340 341 340 341 339 338 337 336 334 332 330 329 328
188 182 162 159 158 155 152 153 150 155 153 154 159 165 165 174 169 175 195 260 290 299 309 307 297 320 337 342 338 336 337 339 338 338 338 338 337 334 333 330 329 328 328
193 172 164 161 156 153 149 147 150 153 151 158 162 162 161 176 172 179 184 202 300 303 294 289 308 318 335 337 332 335 335 336 336 338 338 337 335 334 332 330 329 329 329
167 162 163 158 155 154 151 148 153 156 155 163 168 168 167 179 175 189 189 191 200 285 299 285 301 311 330 331 330 335 333 331 334 336 336 335 334 333 332 331 331 332 330
161 162 167 163 158 156 154 149 150 160 159 166 165 162 170 190 184 189 191 202 206 222 273 280 288 303 318 324 328 335 332 330 333 334 333 333 332 332 332 333 334 333 330
163 170 172 168 165 167 164 158 164 167 168 171 168 173 186 190 188 196 192 205 231 229 270 292 292 304 308 314 325 329 328 328 327 330 330 331 332 333 334 335 335 334 332
173 174 169 170 170 170 169 170 174 176 178 179 180 176 188 182 186 185 197 234 259 255 259 290 304 309 305 309 316 317 324 325 325 325 329 332 334 335 335 336 337 337 335
167 164 162 169 170 170 173 175 174 178 183 182 181 185 192 179 197 217 227 243 269 285 278 285 301 306 306 312 318 316 314 318 324 328 329 333 335 335 336 337 337 337 336
165 167 168 172 168 168 173 170 164 168 174 178 182 188 191 193 205 214 232 236 258 300 308 301 303 307 309 311 317 321 322 324 323 327 327 330 332 333 334 337 338 337 336
162 160 155 162 160 165 175 174 170 167 165 167 173 187 200 208 220 230 249 243 245 281 299 303 304 310 314 322 321 316 316 318 316 319 320 324 326 328 330 333 336 335 335
138 132 152 166 166 178 182 179 169 163 165 169 180 201 217 211 229 262 277 280 275 276 286 293 300 302 306 307 308 311 315 321 317 330 328 315 321 316 323 328 331 333 335
142 144 164 166 167 180 180 178 169 153 164 177 182 190 228 232 245 228 289 308 301 301 290 283 288 291 295 299 303 306 309 310 303 309 318 305 314 312 316 320 327 332 336
154 162 169 170 163 183 175 169 157 143 157 176 185 189 197 211 238 245 309 320 308 305 299 297 278 284 290 293 290 293 298 303 296 301 312 301 309 306 311 314 321 331 337
155 162 167 169 170 179 172 162 148 139 150 173 190 188 188 204 249 287 319 302 316 320 329 325 316 315 315 317 318 318 317 318 314 313 314 301 302 306 303 299 317 331 337
162 152 143 174 173 174 175 159 145 141 148 163 190 205 219 234 252 280 254 245 287 306 322 334 339 335 334 329 329 323 301 303 308 308 306 315 306 321 314 297 305 325 331
Height
1521 1522 1524 1525 1526 1527 1528 1529 1530 1530 1531 1532 1532 1532 1533 1533 1533 1533 1533 1532 1532 1531 1531 1530 1529 1528 1527 1526 1525 1523 1522 1521 1519 1517 1515 1514 1512 1510 1508 1507 1505 1503 1502
1519 1521 1522 1523 1524 1525 1526 1528 1528 1529 1529 1530 1531 1531 1531 1532 1532 1532 1531 1531 1531 1530 1529 1529 1528 1527 1525 1524 1523 1521 1520 1518 1516 1515 1513 1511 1509 1507 1505 1503 1501 1499 1498
1518 1519 1520 1522 1523 1524 1525 1526 1527 1527 1528 1529 1529 1530 1530 1530 1530 1530 1530 1530 1529 1529 1528 1527 1526 1525 1524 1522 1521 1519 1517 1516 1514 1512 1510 1508 1506 1504 1502 1500 1498 1496 1494
1516 1517 1519 1520 1521 1522 1524 1525 1525 1525 1526 1527 1527 1528 1528 1528 1529 1529 1529 1528 1528 1527 1526 1525 1524 1523 1522 1520 1519 1517 1515 1513 1511 1509 1507 1505 1502 1500 1498 1496 1494 1492 1490
1514 1516 1517 1518 1519 1521 1522 1523 1523 1524 1524 1525 1525 1526 1526 1527 1527 1527 1527 1527 1526 1526 1525 1524 1523 1521 1520 1518 1516 1514 1512 1510 1508 1506 1504 1502 1499 1497 1495 1492 1490 1488 1485
1512 1514 1515 1516 1518 1519 1520 1521 1521 1522 1523 1523 1524 1524 1525 1525 1526 1525 1526 1526 1525 1524 1523 1522 1521 1519 1518 1516 1514 1512 1510 1508 1505 1503 1501 1498 1496 1493 1491 1489 1486 1483 1481
1510 1512 1513 1514 1516 1517 1518 1519 1520 1520 1521 1521 1522 1523 1523 1524 1524 1524 1524 1524 1524 1523 1522 1521 1519 1517 1516 1514 1512 1509 1507 1505 1502 1500 1498 1495 1493 1490 1487 1485 1482 1479 1477
1508 1509 1511 1512 1513 1515 1516 1517 1517 1518 1519 1520 1520 1520 1521 1523 1522 1522 1523 1522 1522 1521 1520 1519 1517 1515 1513 1511 1509 1506 1504 1501 1499 1497 1494 1492 1489 1486 1483 1481 1478 1475 1472
1506 1507 1509 1510 1511 1512 1513 1514 1515 1516 1517 1518 1519 1520 1520 1519 1520 1520 1520 1521 1520 1519 1518 1517 1515 1513 1511 1509 1506 1504 1501 1498 1496 1493 1491 1488 1485 1482 1479 1477 1474 1471 1468
1503 1505 1506 1507 1508 1510 1511 1512 1513 1514 1515 1516 1517 1517 1518 1518 1519 1518 1518 1518 1518 1517 1516 1514 1513 1511 1509 1506 1503 1501 1498 1495 1493 1490 1487 1484 1481 1478 1475 1473 1470 1467 1464
1500 1502 1504 1505 1506 1508 1509 1510 1511 1512 1513 1514 1514 1515 1515 1516 1516 1516 1515 1515 1514 1514 1513 1512 1510 1508 1506 1503 1501 1498 1495 1492 1489 1486 1483 1480 1477 1474 1471 1468 1466 1463 1460
1498 1500 1501 1503 1504 1505 1507 1508 1509 1510 1511 1512 1513 1513 1514 1514 1514 1514 1512 1511 1510 1510 1510 1509 1507 1506 1503 1501 1498 1495 1492 1489 1485 1482 1479 1476 1473 1470 1467 1464 1461 1459 1456
1494 1496 1498 1500 1502 1503 1504 1506 1507 1508 1508 1509 1510 1511 1512 1512 1512 1512 1511 1509 1507 1506 1506 1505 1504 1503 1500 1497 1494 1491 1488 1485 1482 1479 1476 1473 1469 1466 1463 1460 1457 1454 1451
1492 1493 1496 1498 1499 1500 1501 1503 1504 1505 1506 1507 1508 1509 1509 1510 1510 1510 1509 1508 1505 1503 1502 1501 1501 1499 1497 1494 1491 1488 1485 1482 1479 1476 1472 1469 1466 1462 1459 1456 1453 1450 1447
1489 1491 1493 1495 1496 1498 1499 1500 1501 1502 1503 1504 1505 1506 1506 1507 1507 1507 1507 1506 1505 1502 1499 1497 1497 1496 1494 1491 1488 1485 1482 1479 1476 1472 1469 1466 1462 1459 1456 1452 1449 1446 1443
1486 1488 1490 1492 1493 1495 1496 1497 1498 1499 1500 1501 1503 1503 1504 1504 1504 1505 1504 1504 1503 1501 1497 1494 1494 1492 1490 1488 1485 1482 1479 1476 1473 1469 1465 1462 1459 1455 1452 1448 1445 1442 1438
1484 1485 1487 1489 1490 1492 1493 1494 1496 1497 1498 1499 1500 1501 1501 1501 1501 1501 1501 1501 1500 1498 1495 1492 1491 1489 1487 1484 1481 1479 1476 1472 1469 1466 1462 1458 1455 1452 1448 1445 1441 1438 1435
1481 1483 1484 1485 1487 1489 1490 1491 1493 1494 1495 1496 1497 1498 1498 1498 1498 1498 1498 1497 1496 1495 1493 1489 1487 1485 1483 1481 1478 1475 1472 1469 1466 1462 1459 1455 1452 1448 1445 1441 1437 1434 1431
1478 1480 1481 1483 1484 1486 1487 1489 1490 1491 1492 1493 1494 1495 1495 1495 1495 1495 1494 1493 1493 1492 1490 1487 1483 1482 1479 1477 1474 1471 1469 1466 1463 1459 1455 1452 1448 1445 1441 1438 1434 1430 1427
1475 1477 1478 1480 1482 1483 1485 1486 1487 1488 1490 1490 1491 1492 1492 1492 1492 1491 1491 1490 1489 1488 1486 1484 1481 1478 1476 1474 1471 1467 1464 1462 1459 1455 1452 1449 1445 1442 1439 1435 1431 1427 1424
1473 1474 1476 1477 1479 1481 1482 1483 1484 1486 1487 1487 1488 1489 1489 1489 1488 1488 1488 1487 1486 1484 1483 1481 1478 1475 1473 1470 1468 1464 1461 1458 1455 1452 1448 1445 1442 1439 1436 1432 1428 1425 1421
1470 1471 1473 1475 1476 1478 1480 1481 1482 1483 1484 1484 1485 1485 1486 1485 1485 1485 1485 1484 1483 1482 1480 1478 1475 1473 1470 1468 1465 1462 1459 1455 1451 1449 1445 1442 1439 1436 1433 1429 1426 1422 1419
1467 1469 1471 1472 1474 1475 1477 1478 1479 1480 1481 1481 1482 1482 1482 1482 1482 1482 1481 1480 1480 1479 1478 1476 1473 1470 1468 1465 1462 1459 1457 1453 1450 1446 1443 1438 1436 1433 1430 1427 1423 1420 1416
1465 1467 1468 1469 1471 1473 1474 1475 1476 1477 1477 1478 1479 1479 1479 1479 1479 1478 1477 1477 1476 1475 1474 1472 1470 1468 1466 1463 1460 1458 1454 1451 1447 1444 1441 1436 1433 1430 1427 1424 1421 1417 1414
1462 1464 1465 1467 1468 1469 1471 1472 1473 1473 1474 1475 1475 1476 1476 1476 1476 1475 1474 1473 1472 1471 1470 1469 1467 1465 1463 1461 1458 1455 1451 1448 1443 1441 1439 1435 1430 1427 1423 1421 1418 1415 1412
1460 1461 1462 1464 1465 1466 1468 1469 1470 1470 1471 1472 1472 1472 1473 1473 1472 1472 1471 1470 1469 1468 1466 1465 1464 1462 1460 1457 1455 1452 1449 1446 1442 1438 1436 1433 1429 1426 1420 1417 1415 1412 1409